FENGYUN 1C DEB, 43214

Orbit data source: Space-Track

FENGYUN 1C DEB, 43214 is space debris in LEO originally from a launch on Mon, 10 May 1999 UTC launched from the Taiyaun Space Center, China (TSC). Fengyun 1C debris stems from the Chinese weather satellite Fengyun-1C, which was intentionally destroyed by a Chinese anti-satellite missile in 2007. This event dramatically increased the amount of space debris, with thousands of trackable fragments posing hazards to satellites and human spaceflight. The Fengyun 1C debris cloud has become a focal point in discussions about space sustainability and the need for international regulations to prevent the creation of new debris.

Loading next visibility...
FENGYUN 1C DEB details
Identifier
43214, 1999-025EYN
Orbit
LEO
Last TLE update1 day ago
Origin
Flag of CNCASC (CN / PRC)
ManufacturerUnknown
MissionSpacecraft
Bus & MotorUnknown
MassUnknown
Launch date (UTC)
1999-05-10 (26 years ago)
Launch vehicleUnknown
Launch site
Taiyaun Space Center, China (TSC)
Object type
Payload
Rocket body
Debris
Shape & HBRUnknown
Radar Cross SectionSmall (<0.1 m²)

Expand to show TLE details & history

TLE from 1 day ago
0 FENGYUN 1C DEB
1 43214U 99025EYN 24347.12352284  .00005391  00000-0  24760-2 0  9995
2 43214  98.7613  48.4864 0058453 203.8447 156.0020 14.20719046352050
Epoch: 2024-12-12T02:57Z
Definitive object data (Epoch: 2024-12-12T02:57:52.373Z)
Latitude-0.00001°
Longitude-77.29019°
Altitude864.338 km
Speed7.4 km/s
True Right ascension03h 13m 56s
True Declination0° 00' 00"
Sunlit
Object was in full shadow at TLE epoch
Visualization TLE readout
Latitude-13.74886°
Longitude-73.88686°
Altitude863.44 km
Speed7.402 km/s
Apparent Right ascension00h 40m 41s
Apparent Declination-40° 49' 28"
Sunlit
Object is in full shadow
Visualization observer readout
Local Sidereal Time07:49:08
Azimuth243.631° WSW
Elevation-36.177°
Doppler factor1
Orbital elements
Apogee altitude862.158 km
Perigee altitude778.006 km
Semi-major axis7,198.219 km
Eccentricity0.0058453
Inclination98.7613°
RAAN48.4864°
Arg. of periapsis203.8447°
True anomaly156.27261°
Mean anomaly156.002°
Eccentric anomaly156.13749°
Mean motion3.5539 °/min
BSTAR0.002476
Orbital period101.3 mins
Loading maneuver chart data...
Loading historical data...
Loading historical data...
Loading historical data...
Loading historical data...
Loading historical data...
Loading historical data...
Loading historical data...

FENGYUN 1C DEB Visibility forecast

Observer location: undefined°, undefined

Span
Click to sort rows by Start time (UTC) header in descending order
Start Az.
Max El. time (UTC)
Max El. Az.
Max El.
End time (UTC)
End Az.
9 mins2024-12-13 16:44:23.576Z28.125° NE2024-12-13 16:48:23.576Z84.536° E35.773°2024-12-13 16:53:23.576Z171.887° S
6 mins2024-12-13 18:26:23.576Z328.17° NNW2024-12-13 18:28:23.576Z299.357° NW20.127°2024-12-13 18:32:23.576Z248.498° W
9 mins2024-12-14 04:06:23.576Z156.933° SSE2024-12-14 04:10:23.576Z88.098° E44.06°2024-12-14 04:15:23.576Z350.419° N
|